Weather History for Phoenix, AZ

Change the Weather History Date:

Tuesday, July 5, 2011

  Actual Average Record
Temperature  
Mean Temperature 92 °F 95 °F  
Max Temperature 105 °F 107 °F 116 °F (1983)
Min Temperature 78 °F 83 °F 63 °F (1912)
Degree Days  
Heating Degree Days 0 0  
Month to date heating degree days 0 0  
Since 1 June heating degree days 0 0  
Since 1 July heating degree days 0 0  
Cooling Degree Days 27 30  
Month to date cooling degree days 159 147  
Year to date cooling degree days 1806 1807  
Since 1 June cooling degree days 942 921  
Growing Degree Days 42 (Base 50)    
Moisture  
Dew Point 64 °F    
Average Humidity 45    
Maximum Humidity 67    
Minimum Humidity 23    
Precipitation  
Precipitation 0.04 in 0.02 in 0.18 in (1906)
Month to date precipitation 0.04 0.09  
Year to date precipitation 1.08 3.32  
Snow  
Snow 0.00 in - - ()
Month to date snowfall 0.0  
Year to date snowfall 0.0  
Since 1 July snowfall 0.0  
Snow Depth 0.00 in    
Sea Level Pressure  
Sea Level Pressure 29.81 in    
Wind  
Wind Speed 8 mph (South)    
Max Wind Speed 38 mph    
Max Gust Speed 53 mph    
Visibility 6 miles    
Events Rain    
T = Trace of Precipitation, MM = Missing Value Source: NWS Daily Summary

Daily Weather History Graph

Daily Weather History Graph

Search for Another Location

Airport:

Trip Planner

Search our weather history database for the weather conditions in past years. The results will help you decide how hot, cold, wet, or windy it might be!

Date:

Astronomy

Jul. 05, 2011 Rise Set
Actual Time 5:23 AM MST 7:41 PM MST
Civil Twilight 4:54 AM MST 8:10 PM MST
Nautical Twilight 4:19 AM MST 8:45 PM MST
Astronomical Twilight 3:41 AM MST 9:23 PM MST
Moon 10:03 AM MST (7/5) 10:36 PM MST (7/5)
Length of Visible Light 15h 15m
Length of Day
14h 17m
Waxing Crescent, 23% of the Moon is Illuminated
Jul 5
Waxing Crescent
Jul 7
First Quarter
Jul 14
Full
Jul 22
Last Quarter
Jul 30
New

Hourly Weather History & Observations

Time (MST) Temp. Heat Index Dew Point Humidity Pressure Visibility Wind Dir Wind Speed Gust Speed Precip Events Conditions
12:51 AM 89.1 °F 90.3 °F 64.0 °F 43% 29.78 in 10.0 mi East 8.1 mph - N/A   Overcast
1:51 AM 90.0 °F 90.3 °F 62.1 °F 39% 29.77 in 10.0 mi ESE 8.1 mph - N/A   Mostly Cloudy
2:51 AM 89.6 °F 90.1 °F 62.6 °F 40% 29.82 in 10.0 mi SE 6.9 mph - N/A   Overcast
3:51 AM 89.1 °F 89.0 °F 61.0 °F 39% 29.76 in 10.0 mi Calm Calm - N/A   Mostly Cloudy
4:51 AM 87.1 °F 88.3 °F 64.0 °F 46% 29.78 in 10.0 mi SE 9.2 mph - N/A   Mostly Cloudy
5:51 AM 87.1 °F 87.8 °F 63.0 °F 44% 29.80 in 10.0 mi ESE 11.5 mph - N/A   Mostly Cloudy
6:51 AM 88.0 °F 89.3 °F 64.0 °F 45% 29.82 in 10.0 mi East 8.1 mph - N/A   Scattered Clouds
7:51 AM 89.1 °F 91.0 °F 64.9 °F 45% 29.84 in 10.0 mi East 4.6 mph - N/A   Scattered Clouds
8:51 AM 91.9 °F 93.3 °F 64.0 °F 39% 29.84 in 10.0 mi Calm Calm - N/A   Scattered Clouds
9:51 AM 93.9 °F 95.6 °F 64.0 °F 37% 29.83 in 10.0 mi Variable 5.8 mph - N/A   Partly Cloudy
10:51 AM 96.1 °F 98.3 °F 64.0 °F 35% 29.81 in 10.0 mi North 6.9 mph - N/A   Scattered Clouds
11:51 AM 98.1 °F 100.7 °F 64.0 °F 33% 29.78 in 10.0 mi Variable 5.8 mph - N/A   Scattered Clouds
12:51 PM 100.0 °F 101.8 °F 63.0 °F 29% 29.76 in 10.0 mi Variable 4.6 mph - N/A   Scattered Clouds
1:51 PM 102.0 °F 104.6 °F 63.0 °F 28% 29.73 in 10.0 mi SW 8.1 mph - N/A   Scattered Clouds
2:51 PM 102.9 °F 104.2 °F 61.0 °F 25% 29.69 in 10.0 mi Variable 5.8 mph - N/A   Scattered Clouds
3:51 PM 104.0 °F 106.0 °F 62.1 °F 25% 29.67 in 10.0 mi Variable 5.8 mph 16.1 mph N/A   Mostly Cloudy
3:54 PM 102.2 °F 104.2 °F 62.6 °F 27% 29.74 in 10.0 mi WNW 10.4 mph 16.1 mph N/A   Mostly Cloudy
4:51 PM 105.1 °F 107.1 °F 61.0 °F 24% 29.65 in 10.0 mi WNW 10.4 mph 18.4 mph N/A   Mostly Cloudy
5:51 PM 105.1 °F 107.1 °F 61.0 °F 24% 29.65 in 10.0 mi West 8.1 mph - N/A   Mostly Cloudy
6:51 PM 104.0 °F 105.3 °F 61.0 °F 24% 29.64 in 10.0 mi WSW 8.1 mph - N/A   Mostly Cloudy
7:51 PM 100.0 °F 100.2 °F 59.0 °F 26% 29.76 in 3.0 mi South 19.6 mph 24.2 mph N/A   Haze
7:53 PM 96.8 °F 97.1 °F 60.8 °F 30% 29.82 in 0.8 mi South 19.6 mph 27.6 mph N/A   Widespread Dust
7:55 PM 93.2 °F 94.1 °F 62.6 °F 36% 29.83 in 0.2 mi South 31.1 mph 43.7 mph N/A   Unknown
8:05 PM 86.0 °F 87.3 °F 64.4 °F 48% 29.85 in 0.1 mi SSW 21.9 mph 52.9 mph 0.00 in Rain Heavy Rain
8:12 PM 82.4 °F 84.6 °F 66.2 °F 58% 29.85 in 0.1 mi South 18.4 mph 38.0 mph 0.00 in Rain Heavy Rain
8:16 PM 82.4 °F 86.3 °F 69.8 °F 66% 29.85 in 0.2 mi South 19.6 mph 31.1 mph 0.00 in Rain Heavy Rain
8:30 PM 78.8 °F - 69.8 °F 74% 29.83 in 0.5 mi SSW 26.5 mph 38.0 mph 0.04 in Rain Light Rain
8:41 PM 80.6 °F 83.9 °F 69.8 °F 70% 29.82 in 1.2 mi SSW 19.6 mph 34.5 mph 0.04 in Rain Light Rain
8:45 PM 80.6 °F 83.2 °F 68.0 °F 65% 29.82 in 2.0 mi SSW 12.7 mph 25.3 mph 0.04 in Rain Light Rain
8:51 PM 81.0 °F 83.8 °F 68.0 °F 65% 29.76 in 6.0 mi SW 12.7 mph 23.0 mph 0.04 in   Widespread Dust
9:13 PM 84.2 °F 85.0 °F 62.6 °F 48% 29.84 in 10.0 mi WSW 9.2 mph - N/A   Overcast
9:51 PM 86.0 °F 87.6 °F 64.9 °F 49% 29.82 in 10.0 mi North 11.5 mph - N/A   Mostly Cloudy
10:20 PM 84.2 °F 85.6 °F 64.4 °F 51% 29.92 in 3.0 mi ENE 17.3 mph 23.0 mph N/A   Haze
10:23 PM 84.2 °F 85.6 °F 64.4 °F 51% 29.92 in 1.8 mi ENE 16.1 mph - N/A   Widespread Dust
10:31 PM 84.2 °F 85.0 °F 62.6 °F 48% 29.93 in 0.8 mi East 16.1 mph - N/A   Widespread Dust
10:48 PM 82.4 °F 84.6 °F 66.2 °F 58% 29.94 in 1.2 mi NNE 11.5 mph - N/A   Widespread Dust
10:51 PM 82.0 °F 84.1 °F 66.0 °F 58% 29.89 in 1.2 mi NNE 10.4 mph - N/A   Widespread Dust
10:58 PM 82.4 °F 84.6 °F 66.2 °F 58% 29.94 in 1.8 mi North 11.5 mph - N/A   Widespread Dust
11:28 PM 80.6 °F 82.7 °F 66.2 °F 61% 29.91 in 2.5 mi NNW 12.7 mph - N/A   Widespread Dust
11:42 PM 80.6 °F 82.7 °F 66.2 °F 61% 29.91 in 10.0 mi WNW 15.0 mph - N/A   Overcast
11:51 PM 80.6 °F 82.3 °F 64.4 °F 58% 29.86 in 10.0 mi West 13.8 mph - N/A   Overcast